EB1TR-13 Weather Reports


time (UTC)temp
C
wind
direction
speed
KPH
gust
KPH
rain 1hr
cm
rain 24hr
cm
rain mn
cm
humidity
%
barometer
mb
20260507085946 15 46 3.2 11.3 0.00 0.00 0.00 83 1011.0
20260507084446 15 80 4.8 9.7 0.00 0.00 0.00 83 1011.0
20260507082946 14 79 1.6 3.2 0.00 0.00 0.00 86 1011.0
20260507081446 13 79 3.2 4.8 0.00 0.00 0.00 87 1011.0
20260507075946 13 79 3.2 4.8 0.00 0.00 0.00 90 1011.0
20260507074446 11 232 1.6 3.2 0.00 0.00 0.00 92 1011.0
20260507072946 11 232 1.6 3.2 0.00 0.00 0.00 93 1011.0
20260507071446 11 232 1.6 3.2 0.00 0.00 0.00 93 1012.0
20260507065946 11 232 1.6 3.2 0.00 0.00 0.00 93 1012.0
20260507064446 11 232 1.6 3.2 0.00 0.00 0.00 93 1012.0
20260507062946 10 154 1.6 1.6 0.00 0.00 0.00 93 1012.0
20260507061446 10 154 1.6 1.6 0.00 0.00 0.00 93 1012.0
20260507055946 10 154 1.6 1.6 0.00 0.00 0.00 93 1012.0
20260507054446 10 154 1.6 1.6 0.00 0.00 0.00 93 1012.0
20260507052946 10 154 1.6 1.6 0.00 0.00 0.00 93 1012.0
20260507051446 10 154 1.6 1.6 0.00 0.00 0.00 93 1012.0
20260507045946 10 154 1.6 1.6 0.00 0.00 0.00 94 1012.0
20260507044446 11 154 1.6 1.6 0.00 0.00 0.00 92 1012.0
20260507042946 10 154 1.6 1.6 0.00 0.00 0.00 95 1012.0
20260507041446 11 154 1.6 1.6 0.00 0.00 0.00 94 1012.0
20260507035946 11 154 1.6 1.6 0.00 0.00 0.00 95 1012.0
20260507034446 11 154 1.6 1.6 0.00 0.00 0.00 92 1012.0
20260507032946 11 154 1.6 1.6 0.00 0.00 0.00 95 1012.0
20260507031446 11 154 1.6 1.6 0.00 0.00 0.00 94 1012.0
20260507025946 11 154 1.6 1.6 0.00 0.00 0.00 94 1012.0
20260507024447 11 154 1.6 1.6 0.00 0.00 0.00 93 1012.0
20260507022946 11 154 1.6 1.6 0.00 0.00 0.00 93 1013.0
20260507021446 11 154 1.6 1.6 0.00 0.00 0.00 92 1013.0
20260507015946 11 154 1.6 1.6 0.00 0.00 0.00 92 1013.0
20260507014446 12 154 1.6 1.6 0.00 0.00 0.00 90 1013.0
20260507012946 12 154 1.6 1.6 0.00 0.00 0.00 90 1013.0
20260507011445 12 154 1.6 1.6 0.00 0.00 0.00 91 1013.0
20260507005946 12 154 1.6 1.6 0.00 0.00 0.00 91 1013.0
20260507002946 12 154 1.6 1.6 0.00 0.00 0.00 91 1014.0
20260507001446 12 154 1.6 1.6 0.00 0.00 0.00 91 1014.0
20260506235946 12 154 1.6 1.6 0.00 0.00 0.00 91 1014.0
20260506234446 12 154 1.6 1.6 0.00 0.00 0.00 91 1014.0
20260506232946 12 154 1.6 1.6 0.00 0.00 0.00 91 1014.0
20260506231446 12 154 1.6 1.6 0.00 0.00 0.00 92 1014.0
20260506225946 12 154 1.6 1.6 0.00 0.00 0.00 91 1014.0
20260506224446 12 154 1.6 1.6 0.00 0.00 0.00 92 1014.0
20260506222946 12 154 3.2 3.2 0.00 0.00 0.00 92 1014.0
20260506221446 12 154 3.2 3.2 0.00 0.00 0.00 91 1014.0
20260506215946 13 154 3.2 3.2 0.00 0.00 0.00 91 1014.0
20260506214445 13 133 1.6 1.6 0.00 0.00 0.00 89 1014.0
20260506212946 13 133 1.6 1.6 0.00 0.00 0.00 90 1015.0
20260506211446 13 133 1.6 1.6 0.00 0.00 0.00 89 1014.0
20260506205946 13 102 1.6 1.6 0.00 0.00 0.00 86 1014.0
20260506204446 13 102 1.6 1.6 0.00 0.00 0.00 86 1014.0
20260506202946 13 102 1.6 1.6 0.00 0.00 0.00 86 1014.0
20260506201446 13 102 1.6 1.6 0.00 0.00 0.00 86 1014.0
20260506195946 13 102 1.6 1.6 0.00 0.00 0.00 86 1014.0
20260506194446 15 109 1.6 1.6 0.00 0.00 0.00 82 1014.0
20260506192946 15 109 1.6 3.2 0.00 0.00 0.00 80 1014.0
20260506191446 15 31 1.6 1.6 0.00 0.00 0.00 80 1014.0
20260506185946 15 31 3.2 3.2 0.00 0.00 0.00 79 1014.0
20260506184450 15 33 1.6 4.8 0.00 0.00 0.00 79 1014.0
20260506182945 15 346 1.6 3.2 0.00 0.00 0.00 79 1014.0
20260506181446 15 345 3.2 6.4 0.00 0.00 0.00 79 1014.0
20260506175946 15 355 1.6 6.4 0.00 0.00 0.00 79 1014.0
20260506174446 16 355 3.2 9.7 0.00 0.00 0.00 79 1014.0
20260506172946 16 355 4.8 9.7 0.00 0.00 0.00 78 1014.0
20260506171445 16 306 3.2 8.0 0.00 0.00 0.00 77 1014.0
20260506165946 16 294 3.2 9.7 0.00 0.00 0.00 78 1014.0
20260506164446 16 19 3.2 11.3 0.00 0.00 0.00 77 1014.0
20260506162946 17 310 1.6 8.0 0.00 0.00 0.00 74 1014.0
20260506161446 17 313 3.2 6.4 0.00 0.00 0.00 73 1014.0
20260506154446 17 313 6.4 11.3 0.00 0.00 0.00 73 1014.0
20260506152946 17 316 4.8 9.7 0.00 0.00 0.00 73 1014.0
20260506151446 16 292 4.8 9.7 0.00 0.00 0.00 74 1014.0
20260506145946 16 327 4.8 11.3 0.00 0.00 0.00 74 1014.0
20260506144449 16 343 6.4 14.5 0.00 0.00 0.00 75 1014.0
20260506142946 16 282 8.0 12.9 0.00 0.00 0.00 75 1015.0
20260506141446 16 351 6.4 14.5 0.00 0.00 0.00 75 1015.0
20260506135946 16 298 6.4 14.5 0.00 0.00 0.00 75 1014.0
20260506134445 16 286 4.8 11.3 0.00 0.00 0.00 77 1014.0
20260506132946 16 298 4.8 11.3 0.00 0.00 0.00 78 1015.0
20260506131445 16 295 3.2 11.3 0.00 0.00 0.00 77 1015.0
20260506125946 16 333 3.2 6.4 0.00 0.00 0.00 77 1015.0
20260506124446 16 333 4.8 9.7 0.00 0.00 0.00 76 1015.0
20260506122946 16 348 3.2 11.3 0.00 0.00 0.00 75 1015.0
20260506121446 16 258 3.2 9.7 0.00 0.00 0.00 74 1015.0
20260506115946 16 292 6.4 11.3 0.00 0.00 0.00 71 1015.0
20260506114446 16 304 3.2 9.7 0.00 0.00 0.00 72 1015.0
20260506112946 16 311 4.8 11.3 0.00 0.00 0.00 73 1015.0
20260506111446 16 297 3.2 6.4 0.00 0.00 0.00 74 1015.0
20260506105946 16 271 3.2 6.4 0.00 0.00 0.00 73 1015.0
20260506104446 16 271 4.8 11.3 0.00 0.00 0.00 72 1015.0
20260506102946 15 261 4.8 9.7 0.00 0.00 0.00 72 1015.0
20260506101446 15 230 3.2 8.0 0.00 0.00 0.00 73 1015.0
20260506095946 15 297 3.2 6.4 0.00 0.00 0.00 74 1015.0
20260506094446 15 227 3.2 9.7 0.00 0.00 0.00 75 1015.0
20260506092946 15 194 1.6 6.4 0.00 0.00 0.00 76 1015.0
20260506091446 15 211 1.6 4.8 0.00 0.00 0.00 77 1015.0